Regional Weather Roundup
Issued by NWS Jackson, KY

Home | Current Version | Previous Version | Graphics & Text | Print | Product List | Glossary On
Versions: 1 2 3 4 5 6 7 8 9 10 11 12 13 14 15 16 17 18 19 20 21 22 23 24 25 26 27 28 29 30 31 32 33 34 35 36 37 38 39 40 41 42 43 44 45 46 47 48 49 50
000
ASUS43 KJKL 110210
RWRJKL

EAST KENTUCKY HOURLY WEATHER ROUNDUP
NATIONAL WEATHER SERVICE JACKSON KY
900 PM EST WED FEB 10 2016

NOTE: "FAIR" INDICATES FEW OR NO CLOUDS BELOW 12,000 FEET WITH
NO SIGNIFICANT WEATHER AND/OR OBSTRUCTIONS TO VISIBILITY.

* THESE REPORTS ARE NOT UNDER NWS QUALITY CONTROL AND MAY NOT
  REPORT WEATHER SUCH AS PRECIPITATION AND FOG.

KYZ079-080-083-085-087-088-110-112-115-119-120-110300
...EASTERN KENTUCKY...

CITY           SKY/WX    TMP DP  RH WIND       PRES   REMARKS
JACKSON        CLOUDY    16   6  65 SW5       30.09R WCI   9
LONDON         PTCLDY    19   8  62 CALM      30.11R
SOMERSET*      MOCLDY    21  10  63 W5        30.16R WCI  15
MONTICELLO*    CLOUDY    22  12  65 W13       30.16R WCI  10
WILLIAMSBURG*  MOCLDY    21   9  58 W3        30.13R
MIDDLESBORO*   MOCLDY    23   8  53 CALM      30.12R
HARLAN APT*    MOCLDY    16   9  73 CALM      30.09R
HAZARD APT*    PTCLDY    16   7  67 SW5       30.10R WCI   9
BLACK MTN*       N/A      5   3  92 VRB3        N/A
BIG SANDY*     CLOUDY    18   8  64 W7        30.10R WCI   8
MOREHEAD APT*  CLOUDY    18   7  62 SW8       30.12S WCI   7
$$

KYZ035-036-041-042-044-050-067-078-099-110300
...CENTRAL KENTUCKY...

CITY           SKY/WX    TMP DP  RH WIND       PRES   REMARKS
MT STERLING*   PTCLDY    18   9  68 W5        30.12S WCI  11
DANVILLE*      PTCLDY    21  10  63 W6        30.14R WCI  14
RICHMOND*      MOCLDY    18   9  68 SW6       30.12R WCI   9
LEXINGTON      MOCLDY    15   6  67 W5        30.11R WCI   8
FRANKFORT      PTCLDY    18   7  62 W3        30.12R
$$

KYZ091>093-OHZ055-061-077-WVZ005-015-034-035-042-110300
...SOUTHERN OHIO/WEST VIRGINIA...

CITY           SKY/WX    TMP DP  RH WIND       PRES   REMARKS
COVINGTON      CLOUDY    16   6  65 NW8       30.11R WCI   5
COLUMBUS       MOCLDY    14   6  70 W10       30.05R WCI   1
DAYTON         PTCLDY    12   4  70 W14       30.08R WCI  -3
WILMINGTON     CLOUDY    13   5  70 W9        30.07R WCI   1
HUNTINGTON     FLURRIES  18   7  62 W10       30.11R WCI   6
CHARLESTON     FLURRIES  18   5  57 W12G31    30.08R WCI   5
PINEVILLE*       N/A     16   3  55 MISG      30.08R
BECKLEY        LGT SNOW  12   7  79 W12G24    29.93R WCI  -2
$$

VAZ002-007-008-TNZ017-027-036-066-071-110300
...SOUTHWEST VIRGINIA/EAST TENNESSEE...

CITY           SKY/WX    TMP DP  RH WIND       PRES   REMARKS
BRISTOL        CLOUDY    20   6  55 VRB5      30.08R WCI  13
KNOXVILLE      CLOUDY    27   7  42 W14       30.14R WCI  16
OAK RIDGE      CLOUDY    27   8  44 W8        30.16R WCI  19
CROSSVILLE     LGT SNOW  22  15  75 W8        30.10R WCI  12
NASHVILLE      FLURRIES  26  20  77 NW3       30.22R
$$

...KEY TO REMARKS...
VSB - VISIBILITY IN MILES
WCI - WIND CHILL INDEX
HX  - HEAT INDEX

$$



USA.gov is the U.S. government's official web portal to all federal, state and local government web resources and services.